CAPE
0 0 0 0 15 89 3 0 0 2 0 0 1 1 0 0 0 0 0 0 0 0 0 0 0 0 0 0 0 0 0 0 0 0 0 0 0 0 0 0 0 0 0 0
5 6 6 5 17 1 0 0 0 1 0 0 0 0 0 0 0 0 0 0 0 0 0 0 0 0 0 0 0 0 0 0 0 0 0 0 0 0 0 0 0 0 0 0
2 15 21 30 48 26 0 0 0 1 1 2 1 0 0 0 0 0 0 0 0 0 0 0 0 0 0 0 0 0 0 0 0 0 0 0 0 0 0 0 0 0 0 0
11 9 17 36 79 110 0 0 0 0 0 0 0 1 0 0 0 0 1 0 0 0 0 0 0 0 0 0 0 0 0 0 0 0 0 0 0 0 0 0 0 0 0 0
0 4 6 6 36 102 0 0 0 1 1 1 0 2 0 0 0 0 0 0 0 0 0 0 0 0 0 0 0 0 0 0 0 0 0 0 0 0 0 0 0 0 0 0
0 0 0 0 28 69 2 0 0 0 1 0 0 0 0 0 1 1 0 0 2 0 1 0 0 1 0 0 0 0 0 0 0 0 0 0 0 0 0 0 0 0 0 0
12 11 4 2 10 37 2 0 0 0 0 0 0 0 0 0 0 0 0 0 0 0 0 0 0 0 0 0 0 0 0 0 0 0 0 0 0 0 0 0 0 0 0 0
26 23 18 9 20 29 0 0 0 0 0 0 0 0 0 0 0 0 0 0 0 0 0 0 0 0 0 0 0 0 0 0 0 0 0 0 0 0 0 0 0 0 0 0
1 0 1 1 19 0 0 10 4 0 0 1 0 0 0 0 0 0 1 0 0 0 0 0 0 0 0 0 0 0 0 0 0 0 0 0 0 0 0 0 0 0 0 0
5 5 2 2 5 5 0 8 3 0 4 0 0 0 0 0 0 0 0 0 0 0 0 0 0 0 0 0 0 0 0 0 0 0 0 0 0 0 0 0 0 0 0 0
9 5 4 5 6 3 0 4 0 0 2 0 0 0 0 0 0 0 0 0 0 0 0 0 0 0 0 0 0 0 0 0 0 0 0 0 0 0 0 0 0 0 0 0
9 8 8 7 3 0 0 0 0 0 0 0 0 0 0 0 0 0 0 0 0 0 0 0 0 0 0 0 0 0 0 0 0 0 0 0 0 0 0 0 0 0 0 0
12 11 10 5 1 0 0 0 0 0 0 0 0 0 0 0 0 0 0 0 0 0 0 0 0 0 0 0 0 0 0 0 0 0 0 0 0 0 0 0 0 0 0 0
0 0 0 0 0 0 0 0 0 0 0 0 0 0 0 0 0 0 0 0 0 0 0 0 0 0 0 0 0 0 0 0 0 0 0 0 0 0 0 0 0 0 0 0
0 0 0 0 0 0 0 0 0 0 0 0 0 0 0 0 0 0 0 0 0 0 0 0 0 0 0 0 0 0 0 0 0 0 0 0 0 0 0 0 0 0 0 0
0 0 0 0 0 0 0 0 0 0 0 0 0 0 0 0 0 0 0 0 0 0 0 0 0 0 0 0 0 0 0 0 0 0 0 0 0 0 0 0 0 0 0 0
0 0 0 0 0 0 0 0 0 0 0 0 0 0 0 0 0 0 0 0 0 0 0 0 0 0 0 0 0 0 0 0 0 0 0 0 0 0 0 0 0 0 0 0
0 0 0 0 0 0 0 0 0 0 0 0 0 0 0 0 0 0 0 0 0 0 0 0 0 0 0 0 0 0 0 0 0 0 0 0 0 0 0 0 0 0 0 0
0 0 0 0 0 0 0 0 0 0 0 0 0 0 0 0 0 0 0 0 0 0 0 0 0 0 0 0 0 0 0 0 0 0 0 0 0 0 0 0 0 0 0 0
0 0 0 0 0 0 0 0 0 0 0 0 0 0 0 0 0 0 0 0 0 0 0 0 0 0 0 0 0 0 0 0 0 0 0 0 0 0 0 0 0 0 0 0
0 0 0 0 0 0 0 0 0 0 0 0 0 0 0 0 0 0 0 0 0 0 0 0 0 0 0 0 0 0 0 0 0 0 0 0 0 0 0 0 0 0 0 0
0 0 0 0 0 0 0 0 0 0 0 0 0 0 0 0 0 0 0 0 0 0 0 0 0 0 0 0 0 0 0 0 0 0 0 0 0 0 0 0 0 0 0 0
0 0 0 0 0 0 0 0 0 0 0 0 0 0 0 0 0 0 0 0 0 0 0 0 0 0 0 0 0 0 0 0 0 0 0 0 0 0 0 0 0 0 0 0
0 0 0 0 0 0 0 0 0 0 0 0 0 0 0 0 0 0 0 0 0 0 0 0 0 0 0 0 0 0 0 0 0 0 0 0 0 0 0 0 0 0 0 0
0 0 0 0 0 0 0 0 0 0 0 0 0 0 0 0 0 0 0 0 0 0 0 0 0 0 0 0 0 0 0 0 0 0 0 0 0 0 0 0 0 0 0 0
0 0 0 0 0 0 0 0 0 0 0 0 0 0 0 0 0 0 0 0 0 0 0 0 0 0 0 0 0 0 0 0 0 0 0 0 0 0 0 0 0 0 0 0
0 0 0 0 0 0 0 0 0 0 0 0 0 0 0 0 0 0 0 0 0 0 0 0 0 0 0 0 0 0 0 0 0 0 0 0 0 0 0 0 0 0 0 0
CIN
-0 -0 -0 -0 -41 -8 -0 -0 -0 -0 -0 -0 -0 -0 -0 -0 -0 -0 -0 -0 -0 -0 -0 -0 -0 -0 -0 -0 -0 -0 -0 -0 -0 -0 -0 -0 -0 -0 -0 -0 -0 -0 -0 -0
-13 -18 -25 -28 -21 -3 -0 -0 -0 -0 -0 -0 -0 -0 -0 -0 -0 -0 -0 -0 -0 -0 -0 -0 -0 -0 -0 -0 -0 -0 -0 -0 -0 -0 -0 -0 -0 -0 -0 -0 -0 -0 -0 -0
-8 -11 -13 -18 -17 -9 -0 -0 -0 -0 -0 -0 -0 -0 -0 -0 -0 -0 -0 -0 -0 -0 -0 -0 -0 -0 -0 -0 -0 -0 -0 -0 -0 -0 -0 -0 -0 -0 -0 -0 -0 -0 -0 -0
-2 -13 -14 -10 -7 -1 -0 -0 -0 -0 -0 -0 -0 -0 -0 -0 -0 -0 -0 -0 -0 -0 -0 -0 -0 -0 -0 -0 -0 -0 -0 -0 -0 -0 -0 -0 -0 -0 -0 -0 -0 -0 -0 -0
-0 -10 -15 -8 -14 -5 -0 -0 -0 -0 -0 -0 -0 -0 -0 -0 -0 -0 -0 -0 -0 -0 -0 -0 -0 -0 -0 -0 -0 -0 -0 -0 -0 -0 -0 -0 -0 -0 -0 -0 -0 -0 -0 -0
-3 -0 -0 -1 -11 -3 -1 -0 -0 -0 -0 -0 -0 -0 -0 -0 -0 -0 -0 -0 -0 -0 -0 -0 -0 -0 -0 -0 -0 -0 -0 -0 -0 -0 -0 -0 -0 -0 -0 -0 -0 -0 -0 -0
-10 -11 -13 -16 -17 -11 -14 -0 -0 -0 -0 -0 -0 -0 -0 -0 -0 -0 -0 -0 -0 -0 -0 -0 -0 -0 -0 -0 -0 -0 -0 -0 -0 -0 -0 -0 -0 -0 -0 -0 -0 -0 -0 -0
-24 -23 -20 -16 -21 -18 -0 -0 -0 -0 -0 -0 -0 -0 -0 -0 -0 -0 -0 -0 -0 -0 -0 -0 -0 -0 -0 -0 -0 -0 -0 -0 -0 -0 -0 -0 -0 -0 -0 -0 -0 -0 -0 -0
-0 -0 -0 -0 -33 -0 -0 -0 -0 -0 -0 -0 -0 -0 -0 -0 -0 -0 -0 -0 -0 -0 -0 -0 -0 -0 -0 -0 -0 -0 -0 -0 -0 -0 -0 -0 -0 -0 -0 -0 -0 -0 -0 -0
-0 -0 -0 -0 -0 -0 -0 -0 -0 -0 -0 -0 -0 -0 -0 -0 -0 -0 -0 -0 -0 -0 -0 -0 -0 -0 -0 -0 -0 -0 -0 -0 -0 -0 -0 -0 -0 -0 -0 -0 -0 -0 -0 -0
-0 -0 -0 -0 -0 -0 -0 -0 -0 -0 -0 -0 -0 -0 -0 -0 -0 -0 -0 -0 -0 -0 -0 -0 -0 -0 -0 -0 -0 -0 -0 -0 -0 -0 -0 -0 -0 -0 -0 -0 -0 -0 -0 -0
-0 -0 -0 -0 -0 -0 -0 -0 -0 -0 -0 -0 -0 -0 -0 -0 -0 -0 -0 -0 -0 -0 -0 -0 -0 -0 -0 -0 -0 -0 -0 -0 -0 -0 -0 -0 -0 -0 -0 -0 -0 -0 -0 -0
-0 -0 -0 -0 -0 -0 -0 -0 -0 -0 -0 -0 -0 -0 -0 -0 -0 -0 -0 -0 -0 -0 -0 -0 -0 -0 -0 -0 -0 -0 -0 -0 -0 -0 -0 -0 -0 -0 -0 -0 -0 -0 -0 -0
-0 -0 -0 -0 -0 -0 -0 -0 -0 -0 -0 -0 -0 -0 -0 -0 -0 -0 -0 -0 -0 -0 -0 -0 -0 -0 -0 -0 -0 -0 -0 -0 -0 -0 -0 -0 -0 -0 -0 -0 -0 -0 -0 -0
-0 -0 -0 -0 -0 -0 -0 -0 -0 -0 -0 -0 -0 -0 -0 -0 -0 -0 -0 -0 -0 -0 -0 -0 -0 -0 -0 -0 -0 -0 -0 -0 -0 -0 -0 -0 -0 -0 -0 -0 -0 -0 -0 -0
-0 -0 -0 -0 -0 -0 -0 -0 -0 -0 -0 -0 -0 -0 -0 -0 -0 -0 -0 -0 -0 -0 -0 -0 -0 -0 -0 -0 -0 -0 -0 -0 -0 -0 -0 -0 -0 -0 -0 -0 -0 -0 -0 -0
-0 -0 -0 -0 -0 -0 -0 -0 -0 -0 -0 -0 -0 -0 -0 -0 -0 -0 -0 -0 -0 -0 -0 -0 -0 -0 -0 -0 -0 -0 -0 -0 -0 -0 -0 -0 -0 -0 -0 -0 -0 -0 -0 -0
-0 -0 -0 -0 -0 -0 -0 -0 -0 -0 -0 -0 -0 -0 -0 -0 -0 -0 -0 -0 -0 -0 -0 -0 -0 -0 -0 -0 -0 -0 -0 -0 -0 -0 -0 -0 -0 -0 -0 -0 -0 -0 -0 -0
-0 -0 -0 -0 -0 -0 -0 -0 -0 -0 -0 -0 -0 -0 -0 -0 -0 -0 -0 -0 -0 -0 -0 -0 -0 -0 -0 -0 -0 -0 -0 -0 -0 -0 -0 -0 -0 -0 -0 -0 -0 -0 -0 -0
-0 -0 -0 -0 -0 -0 -0 -0 -0 -0 -0 -0 -0 -0 -0 -0 -0 -0 -0 -0 -0 -0 -0 -0 -0 -0 -0 -0 -0 -0 -0 -0 -0 -0 -0 -0 -0 -0 -0 -0 -0 -0 -0 -0
-0 -0 -0 -0 -0 -0 -0 -0 -0 -0 -0 -0 -0 -0 -0 -0 -0 -0 -0 -0 -0 -0 -0 -0 -0 -0 -0 -0 -0 -0 -0 -0 -0 -0 -0 -0 -0 -0 -0 -0 -0 -0 -0 -0
-0 -0 -0 -0 -0 -0 -0 -0 -0 -0 -0 -0 -0 -0 -0 -0 -0 -0 -0 -0 -0 -0 -0 -0 -0 -0 -0 -0 -0 -0 -0 -0 -0 -0 -0 -0 -0 -0 -0 -0 -0 -0 -0 -0
-0 -0 -0 -0 -0 -0 -0 -0 -0 -0 -0 -0 -0 -0 -0 -0 -0 -0 -0 -0 -0 -0 -0 -0 -0 -0 -0 -0 -0 -0 -0 -0 -0 -0 -0 -0 -0 -0 -0 -0 -0 -0 -0 -0
-0 -0 -0 -0 -0 -0 -0 -0 -0 -0 -0 -0 -0 -0 -0 -0 -0 -0 -0 -0 -0 -0 -0 -0 -0 -0 -0 -0 -0 -0 -0 -0 -0 -0 -0 -0 -0 -1 -0 -0 -0 -0 -0 -0
-0 -0 -0 -0 -0 -0 -0 -0 -0 -0 -0 -0 -0 -0 -0 -0 -0 -0 -0 -0 -0 -0 -0 -0 -0 -0 -0 -0 -0 -0 -0 -0 -0 -0 -0 -0 -0 -0 -0 -0 -0 -0 -0 -0
-0 -0 -0 -0 -0 -0 -0 -0 -0 -0 -0 -0 -0 -0 -0 -0 -0 -0 -0 -0 -0 -0 -0 -0 -0 -0 -0 -0 -0 -0 -0 -0 -0 -0 -0 -0 -0 -0 -0 -0 -0 -0 -0 -0
-0 -0 -0 -0 -0 -0 -0 -0 -0 -0 -0 -0 -0 -0 -0 -0 -0 -0 -0 -0 -0 -0 -0 -0 -0 -0 -0 -0 -0 -0 -0 -0 -0 -0 -0 -0 -0 -0 -0 -0 -0 -0 -0 -0
Wind_Speed
32 32 32 32 33 32 19 27 32 23 18 26 27 34 32 30 34 33 34 32 36 38 32 33 33 32 27 16 17 24 22 28 35 34 29 26 28 30 28 36 39 37 42 51
30 25 20 24 29 20 23 31 34 25 23 36 36 35 36 34 33 28 26 28 27 26 27 30 29 28 23 19 20 22 19 28 37 36 32 29 31 29 28 30 33 41 44 47
24 22 22 19 23 18 21 30 33 30 27 32 34 37 38 36 29 30 27 30 26 28 28 25 28 26 23 18 19 19 17 26 32 41 38 30 33 31 28 31 41 42 44 43
22 20 19 17 19 20 21 24 35 26 31 34 35 33 33 34 33 26 24 30 27 26 28 26 27 25 24 21 18 20 21 36 34 37 35 36 40 40 35 37 38 44 46 42
21 19 17 16 17 19 24 29 32 28 31 32 32 31 35 34 35 29 32 28 27 23 27 26 28 23 24 25 21 23 25 35 36 44 38 39 47 41 40 40 39 41 43 46
23 21 18 15 13 17 23 28 28 29 30 31 29 33 33 38 33 28 29 32 34 30 30 28 26 23 23 21 23 24 27 32 37 47 36 37 51 42 38 38 36 37 44 40
21 21 21 16 10 12 20 24 31 33 39 27 31 32 31 32 31 30 28 26 27 23 17 18 23 22 23 23 25 26 29 30 31 40 36 54 38 31 32 34 33 32 33 33
26 25 22 16 11 9 14 21 28 31 35 31 32 32 31 28 28 26 25 26 24 15 21 25 28 30 30 30 30 30 28 28 35 40 43 45 40 37 37 38 39 32 31 30
30 32 33 25 12 7 11 18 21 27 34 37 34 30 30 30 30 28 26 23 20 20 24 27 34 37 33 33 32 27 27 28 33 37 45 51 37 30 29 31 46 30 31 35
30 30 29 25 15 13 11 16 21 19 26 28 27 30 31 29 28 28 25 24 24 24 28 32 34 35 30 36 37 37 34 34 39 40 44 39 31 30 31 46 43 32 34 39
29 28 26 22 20 15 13 18 19 15 15 22 22 21 26 25 27 28 24 24 26 27 30 31 31 32 31 32 31 33 35 36 37 36 41 47 28 31 40 36 37 41 43 44
30 29 26 23 19 16 14 17 16 13 14 12 16 20 23 22 20 21 22 21 23 22 23 24 24 27 28 30 35 28 35 32 36 35 37 32 32 37 37 37 42 43 44 44
31 30 28 26 24 20 14 11 12 14 10 17 19 24 26 27 23 18 21 21 20 21 20 22 24 28 27 33 32 31 28 27 33 39 35 41 42 38 35 38 42 44 42 45
31 30 28 27 26 23 20 17 16 15 13 17 20 22 22 26 25 23 19 16 17 18 21 23 24 27 25 28 26 27 27 28 36 37 39 46 33 41 43 44 43 45 44 44
27 24 24 25 26 28 27 24 23 19 17 14 14 19 25 26 25 24 23 20 20 21 23 23 24 22 22 22 22 28 24 33 40 46 46 45 48 46 45 47 48 47 47 48
32 31 26 20 19 19 19 20 25 25 17 15 19 18 25 26 25 25 25 23 22 20 21 21 21 20 21 24 26 29 31 34 38 45 43 44 48 46 44 46 48 47 47 46
29 29 32 33 29 21 20 19 21 22 18 17 17 20 23 26 23 23 24 24 22 21 21 22 22 23 22 24 30 39 40 41 44 44 46 50 43 51 50 49 50 48 47 45
26 26 28 28 26 25 28 30 24 19 19 20 18 19 21 28 24 23 26 24 23 25 22 22 24 22 22 27 40 41 44 49 50 51 45 45 48 50 50 48 48 49 49 48
25 25 27 26 28 28 28 27 31 34 25 22 22 22 23 28 26 24 24 24 24 23 25 26 24 25 27 37 44 47 52 53 54 51 48 48 49 50 49 49 49 49 49 48
25 26 28 30 25 9 18 20 31 28 33 32 32 28 27 27 27 28 24 26 25 24 28 26 25 25 29 38 43 45 50 51 52 53 53 51 49 49 50 50 48 48 48 47
25 29 30 19 14 22 23 30 33 19 34 28 25 25 20 18 28 25 23 25 25 26 30 27 27 29 39 46 45 49 48 47 45 44 43 44 47 48 48 47 46 45 45 46
28 30 26 20 18 22 26 24 19 19 22 15 19 18 20 18 19 21 20 23 22 26 21 25 28 32 39 42 48 47 45 43 43 44 45 45 44 43 43 41 46 45 43 43
26 24 23 19 20 22 24 23 24 23 17 19 16 20 21 20 21 23 22 25 23 16 23 25 22 26 35 34 37 37 38 38 41 42 39 38 36 35 33 36 38 36 35 39
27 27 27 26 25 27 26 25 23 19 17 14 16 22 23 22 24 23 25 23 23 27 27 26 24 28 29 29 31 31 32 32 31 29 29 26 25 25 22 23 24 24 25 29
28 26 32 33 28 25 23 21 21 20 18 19 21 22 23 25 26 26 25 27 29 27 28 24 25 25 25 27 28 27 28 27 26 24 23 22 21 23 19 19 20 19 18 21
33 32 35 29 30 28 26 25 23 21 20 22 24 25 26 28 27 28 30 30 29 25 25 24 23 23 24 26 26 25 26 24 25 23 22 22 23 23 20 20 22 21 21 22
32 33 30 31 29 28 26 25 24 20 24 29 28 33 30 24 27 29 26 27 22 22 22 23 23 23 24 25 26 26 26 25 25 23 22 21 24 24 23 23 23 22 22 22
Wind_Direction
314 314 314 313 312 312 300 298 293 301 297 284 283 278 283 287 287 289 286 289 288 291 290 291 289 288 291 301 302 297 297 300 294 295 302 303 298 293 289 291 295 294 296 294
316 317 315 317 314 311 308 298 296 305 292 286 282 284 287 285 287 292 292 289 292 297 290 292 290 289 298 297 296 300 297 297 297 301 304 303 297 294 293 296 298 289 294 299
322 320 319 316 316 305 302 298 295 303 292 290 288 286 286 286 292 292 290 292 292 292 288 289 297 289 303 300 296 300 297 294 293 293 300 307 301 298 292 288 292 295 287 296
325 324 324 319 317 309 296 299 289 299 294 290 286 289 292 290 293 297 294 294 282 283 285 292 286 287 296 301 297 300 292 292 293 295 297 298 297 296 293 287 287 290 298 293
326 326 324 323 324 313 299 290 293 299 300 299 292 285 293 287 293 293 290 286 291 277 279 279 295 285 290 291 295 293 296 296 300 297 298 296 295 294 292 289 289 285 291 293
327 327 326 324 321 318 307 295 295 300 304 301 297 292 290 295 300 300 296 293 291 287 282 297 302 300 299 296 297 290 294 295 300 297 305 304 297 301 294 296 298 294 293 299
328 327 326 323 309 304 307 300 290 293 297 299 300 302 300 300 300 301 307 309 298 302 316 317 311 307 305 304 304 303 297 295 298 300 304 296 307 314 314 307 305 305 305 307
328 328 324 319 306 303 312 307 294 291 288 294 303 308 304 308 313 310 313 313 311 314 310 305 301 299 298 300 304 303 304 296 298 298 296 302 305 309 309 307 307 310 309 312
331 328 323 321 306 323 326 315 308 296 289 295 297 303 303 303 305 308 312 318 319 313 306 304 297 296 299 301 305 314 305 303 297 299 298 299 308 316 318 314 302 313 313 312
339 337 337 338 343 332 328 330 316 311 298 308 307 299 301 306 307 306 312 312 307 311 303 299 298 297 303 299 301 305 306 304 297 297 298 303 313 316 318 304 307 316 314 313
353 351 349 345 337 336 331 331 324 319 320 328 332 325 315 311 311 304 312 310 311 308 301 302 304 303 305 306 309 310 309 307 306 306 301 299 319 318 312 313 313 311 311 311
4 2 359 0 0 358 345 330 342 358 334 343 356 357 346 337 331 323 324 319 319 322 317 316 315 311 314 312 306 318 308 313 309 309 308 316 316 313 314 314 312 312 311 311
13 13 14 15 13 12 29 20 11 360 6 352 344 333 339 346 343 339 322 326 329 328 330 322 318 312 318 311 312 316 321 326 317 317 318 317 317 316 316 315 312 313 313 311
20 20 21 24 27 27 22 4 352 348 346 327 334 348 350 346 351 354 354 351 350 343 339 328 324 319 326 320 323 324 327 329 323 319 322 320 322 319 318 317 316 314 313 312
5 5 17 30 38 40 35 23 7 355 339 332 345 352 351 351 355 358 358 353 346 340 333 332 327 334 333 335 333 330 337 332 326 319 323 320 318 320 320 317 316 316 314 313
17 11 1 350 347 347 343 342 360 359 8 351 335 353 348 350 354 356 356 355 355 354 347 347 348 353 341 332 329 343 338 336 332 326 326 323 320 319 321 318 317 317 316 315
17 19 24 28 27 18 353 345 342 349 0 351 343 341 352 350 358 0 359 4 5 3 356 352 350 349 350 341 332 336 335 333 331 329 326 322 324 320 320 319 318 318 317 316
20 24 26 30 32 34 25 15 4 13 18 4 353 348 352 359 351 351 2 357 4 3 2 359 351 352 352 337 337 336 334 331 330 329 329 325 324 323 322 321 320 319 318 317
29 40 43 41 30 35 33 29 34 35 35 28 18 4 358 357 3 2 3 7 -0 7 -0 356 356 351 345 342 337 337 335 334 331 333 333 331 329 329 328 327 326 323 322 322
75 71 60 47 75 130 113 108 49 23 29 40 34 31 14 15 13 10 15 14 10 6 4 4 1 360 0 352 347 345 342 339 337 335 334 335 335 334 331 330 329 328 327 325
114 98 94 116 117 106 100 78 65 89 62 69 72 68 77 81 49 46 56 35 30 16 11 12 8 4 356 349 351 348 348 348 347 347 345 344 340 338 337 337 337 336 335 333
113 107 111 112 101 102 99 97 105 98 95 84 79 77 82 87 85 78 75 65 58 39 38 34 22 14 6 1 355 355 357 357 355 353 350 348 348 347 346 346 342 340 340 339
117 118 117 109 100 90 96 89 93 93 89 86 76 81 80 82 79 79 75 68 61 62 57 45 33 17 8 10 8 8 7 5 2 1 2 3 3 5 5 2 1 0 359 353
115 109 100 102 101 97 95 94 93 93 90 83 82 82 79 78 74 75 68 64 64 55 49 35 20 7 8 13 12 12 12 13 11 12 13 14 15 14 15 16 14 14 13 11
112 106 99 96 100 100 98 95 90 90 89 81 86 85 79 71 74 67 65 59 53 53 36 19 7 8 11 13 12 14 14 15 13 14 15 14 13 15 14 15 14 15 14 19
103 99 102 101 96 91 89 87 85 84 80 86 83 78 76 69 68 62 60 52 51 34 19 12 13 14 16 16 15 18 16 17 16 18 18 17 21 17 17 19 20 21 22 22
101 99 99 98 95 90 86 83 77 78 80 75 77 70 68 71 62 59 57 49 29 17 18 22 22 21 20 18 20 21 20 20 20 20 21 21 25 23 25 25 22 24 26 25